Hourly Data Report for July 02, 2017

All times are specified in Local Standard Time (LST). Add 1 hour to adjust for Daylight Saving Time where and when it is observed.

LUTSELK'E CS
NORTHWEST TERRITORIES

62°24'56.030" N
110°41'25.070" W
178.90 m
220L002
71529
XLU

Download Data

Hourly Data (July 2017)
Hourly Data Report for July 2, 2017
Temp Definition
°C
Dew Point Temp Definition
°C
Rel Hum Definition
%
Wind Dir Definition
10's deg

Wind Spd Definition
km/h
Visibility Definition
km
Stn Press Definition
kPa
Hmdx Definition


Wind Chill Definition


Weather Definition


TIME
00:00 17.3 8.4 56 LegendMM LegendMM   98.93     LegendNANA
01:00 16.9 8.6 58 LegendMM LegendMM   98.91     LegendNANA
02:00 17.1 8.5 57 LegendMM LegendMM   98.88     LegendNANA
03:00 17.0 8.5 57 LegendMM LegendMM   98.86     LegendNANA
04:00 15.7 9.9 68 LegendMM LegendMM   98.84     LegendNANA
05:00 15.2 10.1 72 LegendMM LegendMM   98.83     LegendNANA
06:00 14.6 10.7 78 LegendMM LegendMM   98.80     LegendNANA
07:00 14.7 11.6 82 LegendMM LegendMM   98.78     LegendNANA
08:00 14.9 11.3 79 LegendMM LegendMM   98.73     LegendNANA
09:00 18.2 11.3 64 LegendMM LegendMM   98.70     LegendNANA
10:00 17.9 10.8 63 LegendMM LegendMM   98.66     LegendNANA
11:00 17.8 12.3 70 LegendMM LegendMM   98.66     LegendNANA
12:00 16.9 12.7 76 LegendMM LegendMM   98.66     LegendNANA
13:00 17.7 12.9 73 LegendMM LegendMM   98.62     LegendNANA
14:00 17.3 13.0 76 LegendMM LegendMM   98.60     LegendNANA
15:00 17.6 13.2 76 LegendMM LegendMM   98.54     LegendNANA
16:00 17.4 13.2 76 LegendMM LegendMM   98.48     LegendNANA
17:00 19.1 13.5 70 LegendMM LegendMM   98.41     LegendNANA
18:00 18.9 13.6 71 LegendMM LegendMM   98.31     LegendNANA
19:00 19.1 13.6 71 LegendMM LegendMM   98.29     LegendNANA
20:00 15.1 13.1 88 LegendMM LegendMM   98.40     LegendNANA
21:00 15.0 13.3 90 LegendMM LegendMM   98.37     LegendNANA
22:00 15.0 13.0 88 LegendMM LegendMM   98.33     LegendNANA
23:00 15.0 12.7 86 LegendMM LegendMM   98.35     LegendNANA

Notes on Data Quality.

Legend

  • E = Estimated
  • M = Missing
  • NA = Not Available
  • ‡ = Partner data that is not subject to review by the National Climate Archives
Date modified: